GSAT-29

Last updated on Jan. 26, 2020, 4:40 a.m. UTC

1 43698U 18089A   20025.56785588  .00000078  00000-0  00000-0 0  9992
2 43698   0.0407 263.2131 0002745  14.6135 105.9164  1.00271076  4373
UTC
Height (km)
Latitude
Longitude
Inclination
Orbital Period
UTC large
Height (km)
Speed (km/s)
/
Latitude / Longitude
Inclination (degrees)
Orbital Period (minutes)
Azimuth
Elevation
Range (km)
Doppler Factor
iOS Compass Heading
iOS Angle

Next 30 passes for location: Hong Kong

Rise time Rise Azimuth (degrees) Set time Set Azimuth (degrees) Duration Max altitude (degrees)

No matching passes for this satellites